Tabellarische Ansicht des 6.8.2013


Die einzelnen Werte des Tages

Uhrzeit Temperatur Luftdruck Luftfeuchte Wind Hi-Wind Taupunkt THW Index Wind Chill Heat Index Solar- strahlung Regen

00:00

23.2 C

1008.6 hpa

63 %

8.0 km/h aus 112

17.7 km/h aus ESE

15.8 C

23.7 C

23.2 C

23.7 C

0 W/m

0.00 mm

00:05

23.3 C

1008.6 hpa

63 %

8.0 km/h aus 112

16.1 km/h aus E

15.9 C

23.9 C

23.3 C

23.9 C

0 W/m

0.00 mm

00:10

23.4 C

1008.6 hpa

63 %

8.0 km/h aus 108

17.7 km/h aus ESE

15.9 C

23.9 C

23.4 C

23.9 C

0 W/m

0.00 mm

00:15

23.4 C

1008.5 hpa

63 %

8.0 km/h aus 110

17.7 km/h aus SE

16.0 C

24.0 C

23.4 C

24.0 C

0 W/m

0.00 mm

00:20

23.5 C

1008.5 hpa

63 %

8.0 km/h aus 115

16.1 km/h aus SE

16.0 C

24.1 C

23.5 C

24.1 C

0 W/m

0.00 mm

00:25

23.6 C

1008.5 hpa

63 %

9.7 km/h aus 114

17.7 km/h aus ESE

16.1 C

24.2 C

23.6 C

24.2 C

0 W/m

0.00 mm

00:30

23.6 C

1008.4 hpa

63 %

8.0 km/h aus 111

16.1 km/h aus E

16.2 C

24.2 C

23.6 C

24.2 C

0 W/m

0.00 mm

00:35

23.7 C

1008.4 hpa

63 %

8.0 km/h aus 112

17.7 km/h aus ESE

16.2 C

24.3 C

23.7 C

24.3 C

0 W/m

0.00 mm

00:40

23.7 C

1008.4 hpa

63 %

8.0 km/h aus 114

17.7 km/h aus E

16.3 C

24.3 C

23.7 C

24.3 C

0 W/m

0.00 mm

00:45

23.8 C

1008.3 hpa

63 %

9.7 km/h aus 113

17.7 km/h aus ESE

16.3 C

24.4 C

23.8 C

24.4 C

0 W/m

0.00 mm

00:50

23.8 C

1008.3 hpa

64 %

9.7 km/h aus 114

19.3 km/h aus E

16.6 C

24.4 C

23.8 C

24.4 C

0 W/m

0.00 mm

00:55

23.8 C

1008.3 hpa

64 %

8.0 km/h aus 114

17.7 km/h aus ESE

16.6 C

24.4 C

23.8 C

24.4 C

0 W/m

0.00 mm

01:00

23.8 C

1008.3 hpa

64 %

8.0 km/h aus 107

19.3 km/h aus ESE

16.6 C

24.4 C

23.8 C

24.4 C

0 W/m

0.00 mm

01:05

23.8 C

1008.3 hpa

65 %

12.9 km/h aus 113

22.5 km/h aus E

16.8 C

24.2 C

23.5 C

24.5 C

0 W/m

0.00 mm

01:10

23.8 C

1008.3 hpa

65 %

11.3 km/h aus 114

22.5 km/h aus ESE

16.8 C

24.5 C

23.8 C

24.5 C

0 W/m

0.00 mm

01:15

23.7 C

1008.3 hpa

65 %

8.0 km/h aus 115

17.7 km/h aus SE

16.7 C

24.4 C

23.7 C

24.4 C

0 W/m

0.00 mm

01:20

23.7 C

1008.3 hpa

66 %

11.3 km/h aus 108

20.9 km/h aus E

17.0 C

24.4 C

23.7 C

24.4 C

0 W/m

0.00 mm

01:25

23.7 C

1008.3 hpa

66 %

11.3 km/h aus 109

20.9 km/h aus SE

17.0 C

24.4 C

23.7 C

24.4 C

0 W/m

0.00 mm

01:30

23.7 C

1008.0 hpa

67 %

11.3 km/h aus 111

19.3 km/h aus E

17.2 C

24.4 C

23.7 C

24.4 C

0 W/m

0.00 mm

01:35

23.7 C

1008.0 hpa

67 %

9.7 km/h aus 108

19.3 km/h aus ESE

17.2 C

24.4 C

23.7 C

24.4 C

0 W/m

0.00 mm

01:40

23.6 C

1008.0 hpa

67 %

8.0 km/h aus 110

17.7 km/h aus E

17.1 C

24.4 C

23.6 C

24.4 C

0 W/m

0.00 mm

01:45

23.6 C

1008.1 hpa

68 %

8.0 km/h aus 111

22.5 km/h aus E

17.3 C

24.4 C

23.6 C

24.4 C

0 W/m

0.00 mm

01:50

23.6 C

1008.1 hpa

68 %

9.7 km/h aus 111

19.3 km/h aus ESE

17.3 C

24.4 C

23.6 C

24.4 C

0 W/m

0.00 mm

01:55

23.6 C

1008.1 hpa

68 %

9.7 km/h aus 113

19.3 km/h aus SE

17.3 C

24.4 C

23.6 C

24.4 C

0 W/m

0.00 mm

02:00

23.5 C

1008.0 hpa

68 %

8.0 km/h aus 110

16.1 km/h aus ESE

17.3 C

24.3 C

23.5 C

24.3 C

0 W/m

0.00 mm

02:05

23.5 C

1008.0 hpa

68 %

8.0 km/h aus 112

16.1 km/h aus ESE

17.3 C

24.3 C

23.5 C

24.3 C

0 W/m

0.00 mm

02:10

23.4 C

1008.0 hpa

68 %

6.4 km/h aus 109

16.1 km/h aus ESE

17.2 C

24.3 C

23.4 C

24.3 C

0 W/m

0.00 mm

02:15

23.4 C

1007.9 hpa

69 %

8.0 km/h aus 113

17.7 km/h aus E

17.4 C

24.2 C

23.4 C

24.2 C

0 W/m

0.00 mm

02:20

23.4 C

1007.9 hpa

69 %

4.8 km/h aus 110

14.5 km/h aus SE

17.4 C

24.2 C

23.4 C

24.2 C

0 W/m

0.00 mm

02:25

23.4 C

1007.9 hpa

69 %

4.8 km/h aus 110

11.3 km/h aus SE

17.4 C

24.2 C

23.4 C

24.2 C

0 W/m

0.00 mm

02:30

23.3 C

1007.9 hpa

69 %

3.2 km/h aus 111

11.3 km/h aus SE

17.3 C

24.2 C

23.3 C

24.2 C

0 W/m

0.00 mm

02:35

23.3 C

1007.9 hpa

69 %

4.8 km/h aus 114

16.1 km/h aus SE

17.3 C

24.2 C

23.3 C

24.2 C

0 W/m

0.00 mm

02:40

23.3 C

1007.9 hpa

69 %

3.2 km/h aus 113

9.7 km/h aus SE

17.3 C

24.1 C

23.3 C

24.1 C

0 W/m

0.00 mm

02:45

23.3 C

1007.8 hpa

69 %

1.6 km/h aus 114

9.7 km/h aus SE

17.3 C

24.1 C

23.3 C

24.1 C

0 W/m

0.00 mm

02:50

23.2 C

1007.8 hpa

69 %

0.0 km/h aus 114

3.2 km/h aus SE

17.2 C

24.0 C

23.2 C

24.0 C

0 W/m

0.00 mm

02:55

23.2 C

1007.8 hpa

69 %

1.6 km/h aus 114

9.7 km/h aus SE

17.2 C

24.0 C

23.2 C

24.0 C

0 W/m

0.00 mm

03:00

23.2 C

1007.5 hpa

69 %

0.0 km/h aus 112

3.2 km/h aus SE

17.2 C

23.9 C

23.2 C

23.9 C

0 W/m

0.00 mm

03:05

23.2 C

1007.5 hpa

69 %

0.0 km/h aus 116

3.2 km/h aus SE

17.2 C

23.9 C

23.2 C

23.9 C

0 W/m

0.00 mm

03:10

23.2 C

1007.5 hpa

70 %

4.8 km/h aus 109

16.1 km/h aus WSW

17.4 C

23.9 C

23.2 C

23.9 C

0 W/m

0.00 mm

03:15

23.2 C

1009.6 hpa

69 %

20.9 km/h aus 108

35.4 km/h aus WNW

17.2 C

22.1 C

21.3 C

23.9 C

0 W/m

0.00 mm

03:20

23.3 C

1009.6 hpa

71 %

19.3 km/h aus 111

30.6 km/h aus WSW

17.7 C

22.6 C

21.7 C

24.2 C

0 W/m

0.00 mm

03:25

23.2 C

1009.6 hpa

72 %

8.0 km/h aus 109

19.3 km/h aus W

17.9 C

24.1 C

23.2 C

24.1 C

0 W/m

0.25 mm

03:30

23.1 C

1009.3 hpa

73 %

1.6 km/h aus 111

6.4 km/h aus W

18.0 C

24.0 C

23.1 C

24.0 C

0 W/m

0.00 mm

03:35

23.0 C

1009.3 hpa

73 %

4.8 km/h aus 106

14.5 km/h aus S

17.9 C

23.8 C

23.0 C

23.8 C

0 W/m

0.25 mm

03:40

22.8 C

1009.3 hpa

74 %

3.2 km/h aus 104

6.4 km/h aus S

18.0 C

23.7 C

22.8 C

23.7 C

0 W/m

0.51 mm

03:45

22.6 C

1009.0 hpa

75 %

8.0 km/h aus 103

14.5 km/h aus ESE

18.0 C

23.3 C

22.6 C

23.3 C

0 W/m

0.00 mm

03:50

22.3 C

1009.0 hpa

76 %

3.2 km/h aus 105

14.5 km/h aus ESE

17.9 C

23.0 C

22.3 C

23.0 C

0 W/m

0.00 mm

03:55

22.1 C

1009.0 hpa

76 %

0.0 km/h aus 110

3.2 km/h aus ESE

17.7 C

22.7 C

22.1 C

22.7 C

0 W/m

0.00 mm

04:00

21.8 C

1008.5 hpa

77 %

0.0 km/h aus 113

4.8 km/h aus ESE

17.6 C

22.4 C

21.8 C

22.4 C

0 W/m

0.00 mm

04:05

21.7 C

1008.5 hpa

77 %

1.6 km/h aus 111

3.2 km/h aus ESE

17.5 C

22.2 C

21.7 C

22.2 C

0 W/m

0.00 mm

04:10

21.4 C

1008.5 hpa

78 %

4.8 km/h aus 106

8.0 km/h aus ESE

17.4 C

22.0 C

21.4 C

22.0 C

0 W/m

0.00 mm

04:15

21.2 C

1008.9 hpa

79 %

4.8 km/h aus 109

9.7 km/h aus ESE

17.4 C

21.8 C

21.2 C

21.8 C

0 W/m

0.00 mm

04:20

21.0 C

1008.9 hpa

79 %

4.8 km/h aus 110

11.3 km/h aus ESE

17.2 C

21.6 C

21.0 C

21.6 C

0 W/m

0.00 mm

04:25

20.8 C

1008.9 hpa

80 %

0.0 km/h aus 111

1.6 km/h aus SE

17.2 C

21.5 C

20.8 C

21.5 C

0 W/m

0.00 mm

04:30

20.6 C

1009.0 hpa

80 %

4.8 km/h aus 111

8.0 km/h aus SE

17.0 C

21.4 C

20.6 C

21.4 C

0 W/m

0.00 mm

04:35

20.4 C

1009.0 hpa

81 %

4.8 km/h aus 103

9.7 km/h aus SE

17.1 C

21.3 C

20.4 C

21.3 C

0 W/m

0.00 mm

04:40

20.3 C

1009.0 hpa

81 %

4.8 km/h aus 110

9.7 km/h aus SE

16.9 C

21.1 C

20.3 C

21.1 C

0 W/m

0.00 mm

04:45

20.1 C

1009.1 hpa

81 %

6.4 km/h aus 104

11.3 km/h aus S

16.7 C

20.9 C

20.1 C

20.9 C

0 W/m

0.00 mm

04:50

20.0 C

1009.1 hpa

82 %

8.0 km/h aus 109

11.3 km/h aus S

16.8 C

20.8 C

20.0 C

20.8 C

0 W/m

0.00 mm

04:55

19.9 C

1009.1 hpa

82 %

6.4 km/h aus 111

11.3 km/h aus S

16.7 C

20.6 C

19.9 C

20.6 C

0 W/m

0.00 mm

05:00

19.8 C

1009.0 hpa

83 %

6.4 km/h aus 111

9.7 km/h aus S

16.8 C

20.5 C

19.8 C

20.5 C

0 W/m

0.00 mm

05:05

19.7 C

1009.0 hpa

83 %

6.4 km/h aus 104

9.7 km/h aus S

16.8 C

20.4 C

19.7 C

20.4 C

0 W/m

0.00 mm

05:10

19.7 C

1009.0 hpa

84 %

6.4 km/h aus 109

9.7 km/h aus S

16.9 C

20.4 C

19.7 C

20.4 C

0 W/m

0.00 mm

05:15

19.6 C

1009.4 hpa

84 %

6.4 km/h aus 105

9.7 km/h aus S

16.8 C

20.3 C

19.6 C

20.3 C

0 W/m

0.00 mm

05:20

19.4 C

1009.4 hpa

84 %

6.4 km/h aus 112

9.7 km/h aus S

16.7 C

20.2 C

19.4 C

20.2 C

0 W/m

0.00 mm

05:25

19.4 C

1009.4 hpa

84 %

4.8 km/h aus 107

8.0 km/h aus S

16.6 C

20.1 C

19.4 C

20.1 C

0 W/m

0.00 mm

05:30

19.3 C

1009.5 hpa

84 %

4.8 km/h aus 111

8.0 km/h aus S

16.5 C

19.9 C

19.3 C

19.9 C

0 W/m

0.00 mm

05:35

19.2 C

1009.5 hpa

85 %

3.2 km/h aus 110

8.0 km/h aus S

16.6 C

19.8 C

19.2 C

19.8 C

0 W/m

0.00 mm

05:40

19.2 C

1009.5 hpa

85 %

3.2 km/h aus 107

6.4 km/h aus S

16.6 C

19.8 C

19.2 C

19.8 C

0 W/m

0.00 mm

05:45

19.1 C

1009.5 hpa

86 %

1.6 km/h aus 109

6.4 km/h aus S

16.7 C

19.8 C

19.1 C

19.8 C

0 W/m

0.00 mm

05:50

19.1 C

1009.5 hpa

86 %

1.6 km/h aus 112

4.8 km/h aus S

16.7 C

19.7 C

19.1 C

19.7 C

1 W/m

0.00 mm

05:55

19.0 C

1009.5 hpa

86 %

6.4 km/h aus 109

9.7 km/h aus S

16.6 C

19.6 C

19.0 C

19.6 C

5 W/m

0.00 mm

06:00

19.0 C

1009.7 hpa

86 %

8.0 km/h aus 108

11.3 km/h aus S

16.6 C

19.6 C

19.0 C

19.6 C

6 W/m

0.00 mm

06:05

19.2 C

1009.7 hpa

87 %

9.7 km/h aus 110

19.3 km/h aus SW

16.9 C

19.9 C

19.2 C

19.9 C

8 W/m

0.00 mm

06:10

19.3 C

1009.7 hpa

88 %

9.7 km/h aus 110

19.3 km/h aus SSW

17.2 C

20.0 C

19.3 C

20.0 C

12 W/m

0.00 mm

06:15

19.3 C

1009.8 hpa

88 %

9.7 km/h aus 108

17.7 km/h aus SSW

17.3 C

20.1 C

19.3 C

20.1 C

14 W/m

0.00 mm

06:20

19.4 C

1009.8 hpa

88 %

9.7 km/h aus 109

19.3 km/h aus SW

17.4 C

20.2 C

19.4 C

20.2 C

15 W/m

0.00 mm

06:25

19.4 C

1009.8 hpa

88 %

8.0 km/h aus 108

14.5 km/h aus SSW

17.4 C

20.2 C

19.4 C

20.2 C

20 W/m

0.00 mm

06:30

19.5 C

1009.8 hpa

88 %

9.7 km/h aus 108

16.1 km/h aus S

17.5 C

20.3 C

19.5 C

20.3 C

26 W/m

0.00 mm

06:35

19.5 C

1009.8 hpa

88 %

6.4 km/h aus 109

9.7 km/h aus SSW

17.5 C

20.3 C

19.5 C

20.3 C

29 W/m

0.00 mm

06:40

19.6 C

1009.8 hpa

88 %

6.4 km/h aus 107

12.9 km/h aus SSW

17.5 C

20.4 C

19.6 C

20.4 C

33 W/m

0.00 mm

06:45

19.6 C

1009.9 hpa

88 %

9.7 km/h aus 105

20.9 km/h aus SSW

17.5 C

20.4 C

19.6 C

20.4 C

39 W/m

0.00 mm

06:50

19.6 C

1009.9 hpa

88 %

9.7 km/h aus 109

17.7 km/h aus S

17.5 C

20.4 C

19.6 C

20.4 C

47 W/m

0.00 mm

06:55

19.6 C

1009.9 hpa

88 %

8.0 km/h aus 113

16.1 km/h aus SW

17.5 C

20.4 C

19.6 C

20.4 C

72 W/m

0.00 mm

07:00

19.6 C

1010.1 hpa

87 %

8.0 km/h aus 110

16.1 km/h aus SW

17.3 C

20.3 C

19.6 C

20.3 C

82 W/m

0.00 mm

07:05

19.6 C

1010.1 hpa

87 %

11.3 km/h aus 101

17.7 km/h aus S

17.3 C

20.3 C

19.6 C

20.3 C

80 W/m

0.00 mm

07:10

19.6 C

1010.1 hpa

87 %

8.0 km/h aus 107

17.7 km/h aus S

17.3 C

20.3 C

19.6 C

20.3 C

62 W/m

0.00 mm

07:15

19.6 C

1010.4 hpa

87 %

9.7 km/h aus 115

19.3 km/h aus SSE

17.3 C

20.3 C

19.6 C

20.3 C

48 W/m

0.00 mm

07:20

19.5 C

1010.4 hpa

86 %

9.7 km/h aus 110

16.1 km/h aus S

17.1 C

20.3 C

19.5 C

20.3 C

53 W/m

0.00 mm

07:25

19.4 C

1010.4 hpa

85 %

11.3 km/h aus 112

19.3 km/h aus S

16.9 C

20.2 C

19.4 C

20.2 C

59 W/m

0.00 mm

07:30

19.3 C

1010.5 hpa

84 %

9.7 km/h aus 109

17.7 km/h aus SSW

16.6 C

20.0 C

19.3 C

20.0 C

62 W/m

0.00 mm

07:35

19.3 C

1010.5 hpa

84 %

9.7 km/h aus 107

17.7 km/h aus SSW

16.6 C

20.0 C

19.3 C

20.0 C

62 W/m

0.00 mm

07:40

19.3 C

1010.5 hpa

83 %

11.3 km/h aus 107

19.3 km/h aus SSW

16.3 C

19.9 C

19.3 C

19.9 C

68 W/m

0.00 mm

07:45

19.3 C

1010.5 hpa

82 %

11.3 km/h aus 106

24.1 km/h aus SW

16.1 C

19.9 C

19.3 C

19.9 C

99 W/m

0.00 mm

07:50

19.3 C

1010.5 hpa

82 %

9.7 km/h aus 110

17.7 km/h aus SSW

16.2 C

19.9 C

19.3 C

19.9 C

136 W/m

0.00 mm

07:55

19.4 C

1010.5 hpa

81 %

11.3 km/h aus 108

22.5 km/h aus S

16.1 C

20.1 C

19.4 C

20.1 C

141 W/m

0.00 mm

08:00

19.5 C

1010.8 hpa

81 %

12.9 km/h aus 106

19.3 km/h aus SSW

16.2 C

19.8 C

19.2 C

20.2 C

176 W/m

0.00 mm

08:05

19.6 C

1010.8 hpa

80 %

12.9 km/h aus 102

19.3 km/h aus SSE

16.0 C

19.8 C

19.2 C

20.2 C

181 W/m

0.00 mm

08:10

19.7 C

1010.8 hpa

79 %

12.9 km/h aus 115

19.3 km/h aus SSW

15.9 C

19.9 C

19.3 C

20.3 C

150 W/m

0.00 mm

08:15

19.7 C

1011.0 hpa

79 %

11.3 km/h aus 105

20.9 km/h aus S

16.0 C

20.3 C

19.7 C

20.3 C

144 W/m

0.00 mm

08:20

19.8 C

1011.0 hpa

79 %

14.5 km/h aus 107

22.5 km/h aus S

16.0 C

19.6 C

19.0 C

20.4 C

150 W/m

0.00 mm

08:25

19.8 C

1011.0 hpa

78 %

16.1 km/h aus 108

25.7 km/h aus SW

15.8 C

19.2 C

18.6 C

20.4 C

86 W/m

0.00 mm

08:30

19.8 C

1011.3 hpa

78 %

14.5 km/h aus 110

35.4 km/h aus S

15.8 C

19.6 C

19.0 C

20.4 C

284 W/m

0.00 mm

08:35

19.8 C

1011.3 hpa

78 %

19.3 km/h aus 111

30.6 km/h aus S

15.9 C

18.7 C

18.1 C

20.4 C

364 W/m

0.00 mm

08:40

19.9 C

1011.3 hpa

77 %

14.5 km/h aus 104

27.4 km/h aus SSW

15.8 C

19.7 C

19.2 C

20.5 C

378 W/m

0.00 mm

08:45

20.1 C

1011.5 hpa

76 %

12.9 km/h aus 109

20.9 km/h aus SW

15.7 C

20.2 C

19.7 C

20.6 C

395 W/m

0.00 mm

08:50

20.2 C

1011.5 hpa

75 %

11.3 km/h aus 110

20.9 km/h aus SSW

15.6 C

20.7 C

20.2 C

20.7 C

392 W/m

0.00 mm

08:55

20.3 C

1011.5 hpa

73 %

16.1 km/h aus 110

29.0 km/h aus SSW

15.3 C

19.6 C

19.1 C

20.7 C

416 W/m

0.00 mm

09:00

20.4 C

1011.5 hpa

73 %

12.9 km/h aus 112

20.9 km/h aus SW

15.4 C

20.5 C

20.1 C

20.9 C

419 W/m

0.00 mm

09:05

20.6 C

1011.5 hpa

72 %

14.5 km/h aus 115

24.1 km/h aus SSW

15.3 C

20.1 C

19.8 C

20.9 C

438 W/m

0.00 mm

09:10

20.7 C

1011.5 hpa

72 %

14.5 km/h aus 115

24.1 km/h aus SW

15.5 C

20.2 C

19.9 C

21.0 C

446 W/m

0.00 mm

09:15

20.8 C

1011.6 hpa

71 %

12.9 km/h aus 114

24.1 km/h aus WSW

15.3 C

20.7 C

20.4 C

21.0 C

456 W/m

0.00 mm

09:20

20.8 C

1011.6 hpa

71 %

16.1 km/h aus 116

27.4 km/h aus SW

15.4 C

19.9 C

19.7 C

21.1 C

472 W/m

0.00 mm

09:25

20.8 C

1011.6 hpa

71 %

14.5 km/h aus 117

24.1 km/h aus SW

15.3 C

20.2 C

20.0 C

21.0 C

481 W/m

0.00 mm

09:30

20.7 C

1011.7 hpa

71 %

19.3 km/h aus 113

32.2 km/h aus SSW

15.3 C

19.2 C

19.0 C

20.9 C

500 W/m

0.00 mm

09:35

20.8 C

1011.7 hpa

71 %

16.1 km/h aus 109

25.7 km/h aus SW

15.3 C

19.8 C

19.6 C

21.0 C

518 W/m

0.00 mm

09:40

20.8 C

1011.7 hpa

71 %

16.1 km/h aus 111

24.1 km/h aus SW

15.3 C

19.8 C

19.6 C

21.0 C

530 W/m

0.00 mm

09:45

21.0 C

1011.8 hpa

71 %

12.9 km/h aus 112

22.5 km/h aus WSW

15.5 C

20.9 C

20.7 C

21.2 C

544 W/m

0.00 mm

09:50

21.3 C

1011.8 hpa

70 %

11.3 km/h aus 113

19.3 km/h aus WSW

15.6 C

21.4 C

21.3 C

21.4 C

554 W/m

0.00 mm

09:55

21.4 C

1011.8 hpa

70 %

12.9 km/h aus 114

19.3 km/h aus W

15.7 C

21.3 C

21.1 C

21.6 C

565 W/m

0.00 mm

10:00

21.7 C

1011.9 hpa

69 %

14.5 km/h aus 109

24.1 km/h aus SW

15.8 C

21.1 C

20.9 C

21.9 C

568 W/m

0.00 mm

10:05

21.4 C

1011.9 hpa

67 %

14.5 km/h aus 115

24.1 km/h aus SW

15.1 C

20.7 C

20.7 C

21.4 C

569 W/m

0.00 mm

10:10

21.5 C

1011.9 hpa

67 %

11.3 km/h aus 113

19.3 km/h aus SW

15.1 C

21.5 C

21.5 C

21.5 C

600 W/m

0.00 mm

10:15

21.7 C

1011.9 hpa

67 %

9.7 km/h aus 116

17.7 km/h aus S

15.3 C

21.8 C

21.7 C

21.8 C

598 W/m

0.00 mm

10:20

22.0 C

1011.9 hpa

70 %

16.1 km/h aus 110

25.7 km/h aus S

16.3 C

21.2 C

20.8 C

22.3 C

618 W/m

0.00 mm

10:25

22.2 C

1011.9 hpa

65 %

16.1 km/h aus 112

29.0 km/h aus SSE

15.3 C

21.2 C

21.0 C

22.3 C

635 W/m

0.00 mm

10:30

22.3 C

1012.0 hpa

67 %

14.5 km/h aus 110

29.0 km/h aus S

15.9 C

21.8 C

21.6 C

22.6 C

640 W/m

0.00 mm

10:35

22.3 C

1012.0 hpa

66 %

17.7 km/h aus 111

30.6 km/h aus S

15.7 C

21.2 C

20.9 C

22.6 C

649 W/m

0.00 mm

10:40

22.3 C

1012.0 hpa

67 %

14.5 km/h aus 114

30.6 km/h aus SSW

15.9 C

21.8 C

21.6 C

22.6 C

660 W/m

0.00 mm

10:45

22.5 C

1012.1 hpa

65 %

14.5 km/h aus 114

25.7 km/h aus SSW

15.6 C

22.0 C

21.7 C

22.8 C

668 W/m

0.00 mm

10:50

22.4 C

1012.1 hpa

64 %

14.5 km/h aus 115

27.4 km/h aus S

15.3 C

21.9 C

21.7 C

22.7 C

678 W/m

0.00 mm

10:55

22.6 C

1012.1 hpa

63 %

19.3 km/h aus 116

29.0 km/h aus S

15.2 C

21.1 C

20.9 C

22.8 C

695 W/m

0.00 mm

11:00

22.4 C

1012.1 hpa

64 %

14.5 km/h aus 113

25.7 km/h aus SW

15.2 C

21.8 C

21.6 C

22.6 C

691 W/m

0.00 mm

11:05

22.5 C

1012.1 hpa

65 %

14.5 km/h aus 112

22.5 km/h aus SSW

15.6 C

22.0 C

21.7 C

22.8 C

702 W/m

0.00 mm

11:10

22.7 C

1012.1 hpa

64 %

14.5 km/h aus 116

24.1 km/h aus SW

15.5 C

22.2 C

21.9 C

23.0 C

692 W/m

0.00 mm

11:15

22.7 C

1012.2 hpa

62 %

16.1 km/h aus 113

25.7 km/h aus SW

15.1 C

21.8 C

21.6 C

23.0 C

706 W/m

0.00 mm

11:20

22.7 C

1012.2 hpa

64 %

17.7 km/h aus 115

27.4 km/h aus S

15.6 C

21.7 C

21.3 C

23.1 C

705 W/m

0.00 mm

11:25

23.1 C

1012.2 hpa

63 %

12.9 km/h aus 113

24.1 km/h aus WSW

15.6 C

23.2 C

22.8 C

23.5 C

700 W/m

0.00 mm

11:30

22.9 C

1012.3 hpa

63 %

12.9 km/h aus 111

20.9 km/h aus S

15.5 C

23.1 C

22.7 C

23.3 C

716 W/m

0.00 mm

11:35

23.6 C

1012.3 hpa

62 %

9.7 km/h aus 113

19.3 km/h aus WSW

15.8 C

24.1 C

23.6 C

24.1 C

734 W/m

0.00 mm

11:40

23.3 C

1012.3 hpa

61 %

16.1 km/h aus 114

25.7 km/h aus WSW

15.4 C

22.7 C

22.2 C

23.8 C

730 W/m

0.00 mm

11:45

23.3 C

1012.3 hpa

62 %

12.9 km/h aus 115

24.1 km/h aus SW

15.6 C

23.6 C

23.1 C

23.8 C

749 W/m

0.00 mm

11:50

23.4 C

1012.3 hpa

62 %

14.5 km/h aus 114

22.5 km/h aus WSW

15.7 C

23.2 C

22.7 C

23.9 C

749 W/m

0.00 mm

11:55

23.4 C

1012.3 hpa

62 %

12.9 km/h aus 117

27.4 km/h aus W

15.7 C

23.7 C

23.2 C

23.9 C

754 W/m

0.00 mm

12:00

23.4 C

1012.2 hpa

60 %

14.5 km/h aus 116

25.7 km/h aus SSW

15.2 C

23.1 C

22.7 C

23.8 C

758 W/m

0.00 mm

12:05

23.9 C

1012.2 hpa

62 %

11.3 km/h aus 116

25.7 km/h aus WSW

16.2 C

24.5 C

23.9 C

24.5 C

778 W/m

0.00 mm

12:10

23.8 C

1012.2 hpa

61 %

16.1 km/h aus 112

25.7 km/h aus WSW

15.8 C

23.2 C

22.7 C

24.3 C

788 W/m

0.00 mm

12:15

24.0 C

1012.2 hpa

61 %

16.1 km/h aus 112

25.7 km/h aus W

16.0 C

23.4 C

22.9 C

24.5 C

775 W/m

0.00 mm

12:20

24.0 C

1012.2 hpa

60 %

11.3 km/h aus 116

24.1 km/h aus SSW

15.8 C

24.5 C

24.0 C

24.5 C

769 W/m

0.00 mm

12:25

24.3 C

1012.2 hpa

58 %

12.9 km/h aus 114

25.7 km/h aus SSW

15.5 C

24.3 C

24.0 C

24.6 C

768 W/m

0.00 mm

12:30

24.8 C

1012.2 hpa

58 %

17.7 km/h aus 116

29.0 km/h aus S

16.0 C

23.8 C

23.5 C

25.1 C

777 W/m

0.00 mm

12:35

24.3 C

1012.2 hpa

59 %

12.9 km/h aus 116

24.1 km/h aus WSW

15.8 C

24.4 C

24.0 C

24.7 C

810 W/m

0.00 mm

12:40

24.2 C

1012.2 hpa

57 %

14.5 km/h aus 115

27.4 km/h aus SSW

15.1 C

23.8 C

23.4 C

24.5 C

804 W/m

0.00 mm

12:45

24.2 C

1012.1 hpa

59 %

11.3 km/h aus 115

22.5 km/h aus WSW

15.7 C

24.6 C

24.2 C

24.6 C

828 W/m

0.00 mm

12:50

24.7 C

1012.1 hpa

56 %

11.3 km/h aus 114

20.9 km/h aus S

15.3 C

24.9 C

24.7 C

24.9 C

800 W/m

0.00 mm

12:55

24.5 C

1012.1 hpa

57 %

12.9 km/h aus 114

20.9 km/h aus S

15.4 C

24.5 C

24.2 C

24.8 C

806 W/m

0.00 mm

13:00

24.4 C

1012.1 hpa

57 %

12.9 km/h aus 117

24.1 km/h aus SSW

15.4 C

24.4 C

24.2 C

24.7 C

811 W/m

0.00 mm

13:05

25.0 C

1012.1 hpa

59 %

12.9 km/h aus 111

20.9 km/h aus WNW

16.4 C

25.1 C

24.7 C

25.4 C

802 W/m

0.00 mm

13:10

25.1 C

1012.1 hpa

56 %

14.5 km/h aus 118

24.1 km/h aus WSW

15.7 C

24.7 C

24.4 C

25.3 C

810 W/m

0.00 mm

13:15

24.9 C

1012.0 hpa

56 %

8.0 km/h aus 116

17.7 km/h aus SW

15.6 C

25.2 C

24.9 C

25.2 C

827 W/m

0.00 mm

13:20

24.9 C

1012.0 hpa

58 %

11.3 km/h aus 116

22.5 km/h aus WSW

16.1 C

25.3 C

24.9 C

25.3 C

859 W/m

0.00 mm

13:25

25.2 C

1012.0 hpa

57 %

8.0 km/h aus 115

22.5 km/h aus S

16.0 C

25.4 C

25.2 C

25.4 C

799 W/m

0.00 mm

13:30

25.1 C

1011.8 hpa

56 %

12.9 km/h aus 116

27.4 km/h aus SW

15.7 C

25.0 C

24.8 C

25.3 C

781 W/m

0.00 mm

13:35

25.3 C

1011.8 hpa

55 %

14.5 km/h aus 115

29.0 km/h aus WSW

15.6 C

24.8 C

24.6 C

25.5 C

816 W/m

0.00 mm

13:40

25.6 C

1011.8 hpa

55 %

12.9 km/h aus 115

27.4 km/h aus WSW

15.8 C

25.6 C

25.3 C

25.8 C

815 W/m

0.00 mm

13:45

25.9 C

1012.0 hpa

53 %

11.3 km/h aus 116

22.5 km/h aus SSW

15.6 C

26.1 C

25.9 C

26.1 C

805 W/m

0.00 mm

13:50

25.3 C

1012.0 hpa

53 %

14.5 km/h aus 116

32.2 km/h aus W

15.0 C

24.7 C

24.6 C

25.4 C

413 W/m

0.00 mm

13:55

24.7 C

1012.0 hpa

56 %

9.7 km/h aus 115

17.7 km/h aus SSW

15.4 C

24.9 C

24.7 C

24.9 C

847 W/m

0.00 mm

14:00

25.2 C

1012.1 hpa

54 %

14.5 km/h aus 116

24.1 km/h aus W

15.2 C

24.7 C

24.5 C

25.3 C

726 W/m

0.00 mm

14:05

24.7 C

1012.1 hpa

55 %

14.5 km/h aus 114

20.9 km/h aus W

15.0 C

24.1 C

23.9 C

24.8 C

185 W/m

0.00 mm

14:10

24.3 C

1012.1 hpa

55 %

9.7 km/h aus 112

17.7 km/h aus SW

14.7 C

24.5 C

24.3 C

24.5 C

543 W/m

0.00 mm

14:15

24.4 C

1012.1 hpa

57 %

11.3 km/h aus 116

20.9 km/h aus SW

15.4 C

24.7 C

24.4 C

24.7 C

214 W/m

0.00 mm

14:20

24.4 C

1012.1 hpa

56 %

12.9 km/h aus 115

25.7 km/h aus W

15.0 C

24.3 C

24.1 C

24.6 C

385 W/m

0.00 mm

14:25

24.3 C

1012.1 hpa

55 %

16.1 km/h aus 113

22.5 km/h aus SW

14.7 C

23.4 C

23.3 C

24.5 C

540 W/m

0.00 mm

14:30

24.9 C

1012.1 hpa

54 %

14.5 km/h aus 113

27.4 km/h aus WSW

14.9 C

24.3 C

24.2 C

25.0 C

511 W/m

0.00 mm

14:35

24.8 C

1012.1 hpa

55 %

11.3 km/h aus 117

17.7 km/h aus WSW

15.2 C

25.0 C

24.8 C

25.0 C

671 W/m

0.00 mm

14:40

25.1 C

1012.1 hpa

54 %

16.1 km/h aus 116

27.4 km/h aus SW

15.1 C

24.1 C

24.0 C

25.2 C

758 W/m

0.00 mm

14:45

25.6 C

1012.1 hpa

54 %

14.5 km/h aus 113

24.1 km/h aus SSW

15.6 C

25.2 C

24.9 C

25.8 C

766 W/m

0.00 mm

14:50

25.2 C

1012.1 hpa

53 %

11.3 km/h aus 112

27.4 km/h aus WSW

14.9 C

25.3 C

25.2 C

25.3 C

203 W/m

0.00 mm

14:55

25.1 C

1012.1 hpa

53 %

14.5 km/h aus 115

25.7 km/h aus SW

14.9 C

24.5 C

24.4 C

25.2 C

595 W/m

0.00 mm

15:00

25.4 C

1012.1 hpa

51 %

16.1 km/h aus 114

29.0 km/h aus SSW

14.6 C

24.5 C

24.4 C

25.5 C

799 W/m

0.00 mm

15:05

25.4 C

1012.1 hpa

51 %

12.9 km/h aus 116

24.1 km/h aus W

14.6 C

25.2 C

25.2 C

25.5 C

673 W/m

0.00 mm

15:10

25.4 C

1012.1 hpa

52 %

11.3 km/h aus 117

22.5 km/h aus SW

14.9 C

25.6 C

25.4 C

25.6 C

708 W/m

0.00 mm

15:15

25.8 C

1012.1 hpa

51 %

9.7 km/h aus 114

20.9 km/h aus SSW

14.9 C

25.9 C

25.8 C

25.9 C

810 W/m

0.00 mm

15:20

25.4 C

1012.1 hpa

52 %

4.8 km/h aus 114

17.7 km/h aus SW

14.8 C

25.4 C

25.4 C

25.4 C

514 W/m

0.00 mm

15:25

25.7 C

1012.1 hpa

51 %

14.5 km/h aus 114

22.5 km/h aus W

14.8 C

25.1 C

25.0 C

25.7 C

603 W/m

0.00 mm

15:30

25.6 C

1012.0 hpa

52 %

8.0 km/h aus 117

17.7 km/h aus W

15.0 C

25.7 C

25.6 C

25.7 C

575 W/m

0.00 mm

15:35

25.8 C

1012.0 hpa

51 %

14.5 km/h aus 117

24.1 km/h aus W

14.9 C

25.3 C

25.2 C

25.9 C

656 W/m

0.00 mm

15:40

25.8 C

1012.0 hpa

51 %

9.7 km/h aus 116

19.3 km/h aus WSW

14.9 C

25.9 C

25.8 C

25.9 C

698 W/m

0.00 mm

15:45

25.8 C

1011.9 hpa

50 %

9.7 km/h aus 117

19.3 km/h aus WSW

14.6 C

25.8 C

25.8 C

25.8 C

665 W/m

0.00 mm

15:50

25.6 C

1011.9 hpa

51 %

6.4 km/h aus 117

14.5 km/h aus WSW

14.7 C

25.7 C

25.6 C

25.7 C

633 W/m

0.00 mm

15:55

25.9 C

1011.9 hpa

52 %

8.0 km/h aus 116

17.7 km/h aus WSW

15.3 C

26.1 C

25.9 C

26.1 C

618 W/m

0.00 mm

16:00

26.1 C

1011.6 hpa

49 %

11.3 km/h aus 117

19.3 km/h aus W

14.6 C

26.2 C

26.1 C

26.2 C

640 W/m

0.00 mm

16:05

25.7 C

1011.6 hpa

49 %

12.9 km/h aus 116

24.1 km/h aus WSW

14.2 C

25.4 C

25.4 C

25.7 C

422 W/m

0.00 mm

16:10

25.6 C

1011.6 hpa

51 %

6.4 km/h aus 116

12.9 km/h aus W

14.7 C

25.6 C

25.6 C

25.6 C

671 W/m

0.00 mm

16:15

25.9 C

1011.6 hpa

51 %

12.9 km/h aus 118

25.7 km/h aus WSW

15.0 C

25.8 C

25.7 C

26.1 C

596 W/m

0.00 mm

16:20

26.1 C

1011.6 hpa

50 %

11.3 km/h aus 115

20.9 km/h aus WNW

14.8 C

26.2 C

26.1 C

26.2 C

628 W/m

0.00 mm

16:25

25.4 C

1011.6 hpa

52 %

8.0 km/h aus 115

19.3 km/h aus W

14.9 C

25.6 C

25.4 C

25.6 C

142 W/m

0.00 mm

16:30

25.3 C

1011.6 hpa

51 %

4.8 km/h aus 115

8.0 km/h aus SW

14.4 C

25.3 C

25.3 C

25.3 C

492 W/m

0.00 mm

16:35

25.7 C

1011.6 hpa

52 %

4.8 km/h aus 114

14.5 km/h aus W

15.1 C

25.8 C

25.7 C

25.8 C

474 W/m

0.00 mm

16:40

25.4 C

1011.6 hpa

50 %

11.3 km/h aus 115

22.5 km/h aus WSW

14.3 C

25.4 C

25.4 C

25.4 C

287 W/m

0.00 mm

16:45

25.3 C

1011.7 hpa

51 %

12.9 km/h aus 117

22.5 km/h aus W

14.4 C

25.0 C

25.0 C

25.3 C

320 W/m

0.00 mm

16:50

25.2 C

1011.7 hpa

51 %

8.0 km/h aus 116

12.9 km/h aus WNW

14.3 C

25.2 C

25.2 C

25.2 C

228 W/m

0.00 mm

16:55

25.1 C

1011.7 hpa

51 %

6.4 km/h aus 112

12.9 km/h aus NW

14.2 C

25.0 C

25.1 C

25.0 C

303 W/m

0.00 mm

17:00

25.2 C

1011.6 hpa

52 %

4.8 km/h aus 115

11.3 km/h aus WSW

14.6 C

25.2 C

25.2 C

25.2 C

376 W/m

0.00 mm

17:05

25.6 C

1011.6 hpa

52 %

9.7 km/h aus 114

19.3 km/h aus W

15.0 C

25.7 C

25.6 C

25.7 C

527 W/m

0.00 mm

17:10

25.7 C

1011.6 hpa

51 %

9.7 km/h aus 115

17.7 km/h aus WSW

14.8 C

25.7 C

25.7 C

25.7 C

442 W/m

0.00 mm

17:15

25.3 C

1011.5 hpa

53 %

11.3 km/h aus 115

22.5 km/h aus WNW

15.1 C

25.4 C

25.3 C

25.4 C

297 W/m

0.00 mm

17:20

24.9 C

1011.5 hpa

55 %

9.7 km/h aus 114

19.3 km/h aus WNW

15.2 C

25.1 C

24.9 C

25.1 C

302 W/m

0.00 mm

17:25

24.9 C

1011.5 hpa

55 %

9.7 km/h aus 116

20.9 km/h aus WNW

15.3 C

25.1 C

24.9 C

25.1 C

339 W/m

0.00 mm

17:30

24.9 C

1011.6 hpa

56 %

11.3 km/h aus 116

22.5 km/h aus NW

15.5 C

25.1 C

24.9 C

25.1 C

380 W/m

0.00 mm

17:35

24.9 C

1011.6 hpa

55 %

6.4 km/h aus 116

14.5 km/h aus NW

15.3 C

25.1 C

24.9 C

25.1 C

405 W/m

0.00 mm

17:40

25.0 C

1011.6 hpa

55 %

8.0 km/h aus 116

17.7 km/h aus W

15.3 C

25.2 C

25.0 C

25.2 C

408 W/m

0.00 mm

17:45

25.1 C

1011.8 hpa

54 %

6.4 km/h aus 115

19.3 km/h aus WNW

15.1 C

25.2 C

25.1 C

25.2 C

426 W/m

0.00 mm

17:50

25.2 C

1011.8 hpa

55 %

6.4 km/h aus 114

16.1 km/h aus WNW

15.5 C

25.4 C

25.2 C

25.4 C

453 W/m

0.00 mm

17:55

25.3 C

1011.8 hpa

55 %

6.4 km/h aus 117

11.3 km/h aus NW

15.6 C

25.6 C

25.3 C

25.6 C

413 W/m

0.00 mm

18:00

25.3 C

1011.9 hpa

56 %

8.0 km/h aus 115

16.1 km/h aus NW

15.9 C

25.6 C

25.3 C

25.6 C

408 W/m

0.00 mm

18:05

25.3 C

1011.9 hpa

54 %

6.4 km/h aus 115

14.5 km/h aus WSW

15.3 C

25.4 C

25.3 C

25.4 C

385 W/m

0.00 mm

18:10

24.9 C

1011.9 hpa

55 %

8.0 km/h aus 116

17.7 km/h aus NW

15.3 C

25.1 C

24.9 C

25.1 C

246 W/m

0.00 mm

18:15

24.6 C

1012.0 hpa

55 %

9.7 km/h aus 116

17.7 km/h aus WSW

15.0 C

24.8 C

24.6 C

24.8 C

183 W/m

0.00 mm

18:20

24.4 C

1012.0 hpa

56 %

8.0 km/h aus 113

14.5 km/h aus WNW

15.0 C

24.6 C

24.4 C

24.6 C

174 W/m

0.00 mm

18:25

24.2 C

1012.0 hpa

57 %

8.0 km/h aus 115

17.7 km/h aus NW

15.1 C

24.5 C

24.2 C

24.5 C

136 W/m

0.00 mm

18:30

24.1 C

1011.6 hpa

57 %

4.8 km/h aus 112

9.7 km/h aus WNW

15.1 C

24.4 C

24.1 C

24.4 C

148 W/m

0.00 mm

18:35

24.1 C

1011.6 hpa

58 %

6.4 km/h aus 116

14.5 km/h aus NNW

15.3 C

24.4 C

24.1 C

24.4 C

145 W/m

0.00 mm

18:40

23.9 C

1011.6 hpa

58 %

4.8 km/h aus 112

14.5 km/h aus WNW

15.2 C

24.3 C

23.9 C

24.3 C

126 W/m

0.00 mm

18:45

23.8 C

1011.6 hpa

58 %

6.4 km/h aus 116

17.7 km/h aus NW

15.1 C

24.2 C

23.8 C

24.2 C

113 W/m

0.00 mm

18:50

23.7 C

1011.6 hpa

58 %

8.0 km/h aus 114

16.1 km/h aus WNW

15.0 C

24.1 C

23.7 C

24.1 C

101 W/m

0.00 mm

18:55

23.6 C

1011.6 hpa

58 %

6.4 km/h aus 111

14.5 km/h aus WNW

14.9 C

23.9 C

23.6 C

23.9 C

88 W/m

0.00 mm

19:00

23.6 C

1012.1 hpa

58 %

4.8 km/h aus 116

11.3 km/h aus NW

14.8 C

23.9 C

23.6 C

23.9 C

74 W/m

0.00 mm

19:05

23.6 C

1012.1 hpa

58 %

4.8 km/h aus 114

12.9 km/h aus WNW

14.8 C

23.9 C

23.6 C

23.9 C

63 W/m

0.00 mm

19:10

23.6 C

1012.1 hpa

58 %

6.4 km/h aus 115

11.3 km/h aus NW

14.8 C

23.9 C

23.6 C

23.9 C

58 W/m

0.00 mm

19:15

23.6 C

1011.8 hpa

58 %

4.8 km/h aus 106

8.0 km/h aus WNW

14.8 C

23.9 C

23.6 C

23.9 C

53 W/m

0.00 mm

19:20

23.5 C

1011.8 hpa

57 %

6.4 km/h aus 113

12.9 km/h aus WNW

14.5 C

23.8 C

23.5 C

23.8 C

43 W/m

0.00 mm

19:25

23.4 C

1011.8 hpa

58 %

6.4 km/h aus 115

14.5 km/h aus WNW

14.7 C

23.7 C

23.4 C

23.7 C

38 W/m

0.00 mm

19:30

23.4 C

1011.6 hpa

59 %

3.2 km/h aus 115

11.3 km/h aus WNW

14.9 C

23.7 C

23.4 C

23.7 C

37 W/m

0.00 mm

19:35

23.3 C

1011.6 hpa

59 %

3.2 km/h aus 113

8.0 km/h aus WNW

14.9 C

23.7 C

23.3 C

23.7 C

37 W/m

0.00 mm

19:40

23.3 C

1011.6 hpa

60 %

3.2 km/h aus 111

8.0 km/h aus WNW

15.1 C

23.7 C

23.3 C

23.7 C

33 W/m

0.00 mm

19:45

23.2 C

1011.1 hpa

61 %

4.8 km/h aus 109

9.7 km/h aus NW

15.2 C

23.6 C

23.2 C

23.6 C

30 W/m

0.00 mm

19:50

23.1 C

1011.1 hpa

61 %

3.2 km/h aus 107

9.7 km/h aus NW

15.2 C

23.5 C

23.1 C

23.5 C

26 W/m

0.00 mm

19:55

23.0 C

1011.1 hpa

62 %

6.4 km/h aus 109

12.9 km/h aus NW

15.3 C

23.4 C

23.0 C

23.4 C

26 W/m

0.00 mm

20:00

22.8 C

1011.0 hpa

63 %

6.4 km/h aus 114

14.5 km/h aus NW

15.4 C

23.2 C

22.8 C

23.2 C

23 W/m

0.00 mm

20:05

22.7 C

1011.0 hpa

64 %

4.8 km/h aus 111

11.3 km/h aus NW

15.5 C

23.0 C

22.7 C

23.0 C

21 W/m

0.00 mm

20:10

22.6 C

1011.0 hpa

65 %

6.4 km/h aus 112

12.9 km/h aus NW

15.6 C

22.8 C

22.6 C

22.8 C

19 W/m

0.00 mm

20:15

22.4 C

1010.7 hpa

65 %

4.8 km/h aus 113

12.9 km/h aus NW

15.5 C

22.7 C

22.4 C

22.7 C

21 W/m

0.00 mm

20:20

22.3 C

1010.7 hpa

66 %

8.0 km/h aus 113

14.5 km/h aus NW

15.7 C

22.6 C

22.3 C

22.6 C

19 W/m

0.00 mm

20:25

22.2 C

1010.7 hpa

67 %

8.0 km/h aus 109

14.5 km/h aus NW

15.8 C

22.5 C

22.2 C

22.5 C

18 W/m

0.00 mm

20:30

22.1 C

1010.9 hpa

67 %

4.8 km/h aus 112

12.9 km/h aus NW

15.7 C

22.3 C

22.1 C

22.3 C

16 W/m

0.00 mm

20:35

21.9 C

1010.9 hpa

67 %

4.8 km/h aus 111

16.1 km/h aus NW

15.5 C

22.1 C

21.9 C

22.1 C

14 W/m

0.00 mm

20:40

21.8 C

1010.9 hpa

68 %

4.8 km/h aus 110

11.3 km/h aus NW

15.7 C

22.0 C

21.8 C

22.0 C

14 W/m

0.00 mm

20:45

21.8 C

1011.1 hpa

68 %

6.4 km/h aus 110

12.9 km/h aus NW

15.7 C

22.0 C

21.8 C

22.0 C

12 W/m

0.00 mm

20:50

21.7 C

1011.1 hpa

69 %

4.8 km/h aus 104

12.9 km/h aus NW

15.8 C

21.9 C

21.7 C

21.9 C

12 W/m

0.00 mm

20:55

21.6 C

1011.1 hpa

69 %

6.4 km/h aus 112

16.1 km/h aus NW

15.7 C

21.8 C

21.6 C

21.8 C

9 W/m

0.00 mm

21:00

21.6 C

1011.2 hpa

69 %

6.4 km/h aus 113

11.3 km/h aus NW

15.6 C

21.7 C

21.6 C

21.7 C

10 W/m

0.00 mm

21:05

21.4 C

1011.2 hpa

70 %

6.4 km/h aus 111

14.5 km/h aus NW

15.7 C

21.6 C

21.4 C

21.6 C

6 W/m

0.00 mm

21:10

21.3 C

1011.2 hpa

70 %

3.2 km/h aus 114

11.3 km/h aus NNW

15.6 C

21.4 C

21.3 C

21.4 C

2 W/m

0.00 mm

21:15

21.3 C

1011.7 hpa

70 %

4.8 km/h aus 113

11.3 km/h aus NW

15.6 C

21.4 C

21.3 C

21.4 C

0 W/m

0.00 mm

21:20

21.2 C

1011.7 hpa

71 %

6.4 km/h aus 115

16.1 km/h aus NW

15.7 C

21.3 C

21.2 C

21.3 C

0 W/m

0.00 mm

21:25

21.1 C

1011.7 hpa

71 %

4.8 km/h aus 110

14.5 km/h aus NNW

15.6 C

21.2 C

21.1 C

21.2 C

0 W/m

0.00 mm

21:30

21.0 C

1012.1 hpa

72 %

4.8 km/h aus 107

11.3 km/h aus NNW

15.8 C

21.2 C

21.0 C

21.2 C

0 W/m

0.00 mm

21:35

20.9 C

1012.1 hpa

72 %

8.0 km/h aus 114

16.1 km/h aus NW

15.7 C

21.2 C

20.9 C

21.2 C

0 W/m

0.00 mm

21:40

20.8 C

1012.1 hpa

73 %

6.4 km/h aus 105

17.7 km/h aus NW

15.8 C

21.2 C

20.8 C

21.2 C

0 W/m

0.00 mm

21:45

20.8 C

1012.3 hpa

73 %

3.2 km/h aus 108

14.5 km/h aus NNW

15.8 C

21.1 C

20.8 C

21.1 C

0 W/m

0.00 mm

21:50

20.7 C

1012.3 hpa

73 %

3.2 km/h aus 110

9.7 km/h aus NNW

15.7 C

21.1 C

20.7 C

21.1 C

0 W/m

0.00 mm

21:55

20.6 C

1012.3 hpa

74 %

4.8 km/h aus 111

12.9 km/h aus NNW

15.8 C

21.1 C

20.6 C

21.1 C

0 W/m

0.00 mm

22:00

20.4 C

1012.4 hpa

74 %

3.2 km/h aus 112

8.0 km/h aus NNW

15.7 C

20.9 C

20.4 C

20.9 C

0 W/m

0.00 mm

22:05

20.3 C

1012.4 hpa

74 %

3.2 km/h aus 109

8.0 km/h aus NNW

15.5 C

20.8 C

20.3 C

20.8 C

0 W/m

0.00 mm

22:10

20.3 C

1012.4 hpa

74 %

1.6 km/h aus 109

6.4 km/h aus NW

15.5 C

20.8 C

20.3 C

20.8 C

0 W/m

0.00 mm

22:15

20.2 C

1012.5 hpa

75 %

3.2 km/h aus 110

6.4 km/h aus NNW

15.6 C

20.7 C

20.2 C

20.7 C

0 W/m

0.00 mm

22:20

20.1 C

1012.5 hpa

75 %

1.6 km/h aus 110

8.0 km/h aus NNW

15.5 C

20.6 C

20.1 C

20.6 C

0 W/m

0.00 mm

22:25

20.0 C

1012.5 hpa

75 %

0.0 km/h aus 109

4.8 km/h aus NNW

15.4 C

20.5 C

20.0 C

20.5 C

0 W/m

0.00 mm

22:30

19.9 C

1012.6 hpa

75 %

0.0 km/h aus 111

4.8 km/h aus NNW

15.4 C

20.4 C

19.9 C

20.4 C

0 W/m

0.00 mm

22:35

19.8 C

1012.6 hpa

75 %

0.0 km/h aus 108

4.8 km/h aus NW

15.3 C

20.3 C

19.8 C

20.3 C

0 W/m

0.00 mm

22:40

19.8 C

1012.6 hpa

76 %

0.0 km/h aus 107

3.2 km/h aus NNW

15.4 C

20.3 C

19.8 C

20.3 C

0 W/m

0.00 mm

22:45

19.7 C

1012.7 hpa

76 %

1.6 km/h aus 105

6.4 km/h aus NW

15.3 C

20.2 C

19.7 C

20.2 C

0 W/m

0.00 mm

22:50

19.6 C

1012.7 hpa

76 %

3.2 km/h aus 115

8.0 km/h aus NNW

15.2 C

20.0 C

19.6 C

20.0 C

0 W/m

0.00 mm

22:55

19.5 C

1012.7 hpa

76 %

3.2 km/h aus 114

9.7 km/h aus NNW

15.2 C

19.9 C

19.5 C

19.9 C

0 W/m

0.00 mm

23:00

19.4 C

1012.8 hpa

77 %

4.8 km/h aus 113

9.7 km/h aus NNW

15.3 C

19.8 C

19.4 C

19.8 C

0 W/m

0.00 mm

23:05

19.3 C

1012.8 hpa

77 %

3.2 km/h aus 107

9.7 km/h aus NNW

15.2 C

19.8 C

19.3 C

19.8 C

0 W/m

0.00 mm

23:10

19.2 C

1012.8 hpa

77 %

3.2 km/h aus 106

9.7 km/h aus NNW

15.1 C

19.7 C

19.2 C

19.7 C

0 W/m

0.00 mm

23:15

19.2 C

1012.8 hpa

77 %

4.8 km/h aus 107

9.7 km/h aus NNW

15.0 C

19.6 C

19.2 C

19.6 C

0 W/m

0.00 mm

23:20

19.1 C

1012.8 hpa

77 %

4.8 km/h aus 110

14.5 km/h aus NNW

14.9 C

19.4 C

19.1 C

19.4 C

0 W/m

0.00 mm

23:25

19.0 C

1012.8 hpa

78 %

4.8 km/h aus 111

9.7 km/h aus NNW

15.1 C

19.4 C

19.0 C

19.4 C

0 W/m

0.00 mm

23:30

18.9 C

1012.9 hpa

78 %

4.8 km/h aus 107

12.9 km/h aus NNW

15.0 C

19.3 C

18.9 C

19.3 C

0 W/m

0.00 mm

23:35

18.8 C

1012.9 hpa

78 %

3.2 km/h aus 109

9.7 km/h aus NNW

14.9 C

19.2 C

18.8 C

19.2 C

0 W/m

0.00 mm

23:40

18.8 C

1012.9 hpa

78 %

3.2 km/h aus 112

8.0 km/h aus NNW

14.9 C

19.2 C

18.8 C

19.2 C

0 W/m

0.00 mm

23:45

18.7 C

1012.9 hpa

78 %

3.2 km/h aus 109

9.7 km/h aus NNW

14.8 C

19.1 C

18.7 C

19.1 C

0 W/m

0.00 mm

23:50

18.6 C

1012.9 hpa

79 %

4.8 km/h aus 112

12.9 km/h aus NNW

14.9 C

19.0 C

18.6 C

19.0 C

0 W/m

0.00 mm

23:55

18.5 C

1012.9 hpa

79 %

4.8 km/h aus 112

14.5 km/h aus NNW

14.8 C

18.9 C

18.5 C

18.9 C

0 W/m

0.00 mm